| time (UTC) | temp C | wind direction | speed KPH | gust KPH | rain 1hr cm | rain 24hr cm | rain mn cm | humidity % | barometer mb |
| 20260505192150 | 23 | 130 | 0.0 | 14.5 | 0.00 | 0.00 | 0.00 | 88 | 1017.6 |
| 20260505191652 | 23 | 154 | 1.6 | 12.9 | 0.00 | 0.00 | 0.00 | 89 | 1017.8 |
| 20260505191151 | 23 | 127 | 6.4 | 16.1 | 0.00 | 0.00 | 0.00 | 89 | 1017.4 |
| 20260505190651 | 23 | 139 | 6.4 | 17.7 | 0.00 | 0.00 | 0.00 | 90 | 1017.6 |
| 20260505190153 | 23 | 152 | 8.0 | 17.7 | 0.00 | 0.00 | 0.00 | 91 | 1017.6 |
| 20260505185651 | 23 | 153 | 4.8 | 9.7 | 0.00 | 0.00 | 0.00 | 92 | 1017.8 |
| 20260505185158 | 23 | 147 | 0.0 | 0.0 | 0.00 | 0.00 | 0.00 | 93 | 1017.6 |
| 20260505185152 | 23 | 156 | 0.0 | 0.0 | 0.00 | 0.00 | 0.00 | 92 | 1017.7 |
| 20260505182556 | 22 | 58 | 0.0 | 0.0 | 0.00 | 0.00 | 0.00 | 93 | 1017.3 |
| 20260505182526 | 22 | 43 | 0.0 | 0.0 | 0.00 | 0.00 | 0.00 | 93 | 1017.1 |
| 20260505181101 | 22 | 49 | 0.0 | 0.0 | 0.00 | 0.00 | 0.00 | 93 | 1017.1 |
| 20260505180832 | 22 | 50 | 0.0 | 0.0 | 0.00 | 0.00 | 0.00 | 93 | 1017.1 |
| 20260505180332 | 22 | 75 | 0.0 | 0.0 | 0.00 | 0.00 | 0.00 | 93 | 1016.9 |
| 20260505175600 | 22 | 139 | 0.0 | 0.0 | 0.00 | 0.00 | 0.00 | 93 | 1017.1 |
| 20260505175101 | 22 | 153 | 0.0 | 0.0 | 0.00 | 0.00 | 0.00 | 94 | 1017.0 |
| 20260505174600 | 22 | 228 | 0.0 | 0.0 | 0.00 | 0.00 | 0.00 | 93 | 1017.1 |
| 20260505174100 | 22 | 229 | 0.0 | 0.0 | 0.00 | 0.00 | 0.00 | 93 | 1016.9 |
| 20260505173831 | 21 | 229 | 0.0 | 0.0 | 0.00 | 0.00 | 0.00 | 93 | 1017.0 |
| 20260505173108 | 21 | 228 | 0.0 | 0.0 | 0.00 | 0.00 | 0.00 | 93 | 1016.6 |
| 20260505173102 | 21 | 228 | 0.0 | 0.0 | 0.00 | 0.00 | 0.00 | 93 | 1016.9 |
| 20260505172100 | 21 | 228 | 0.0 | 0.0 | 0.00 | 0.00 | 0.00 | 93 | 1016.5 |
| 20260505171600 | 21 | 228 | 0.0 | 0.0 | 0.00 | 0.00 | 0.00 | 93 | 1016.7 |
| 20260505171049 | 21 | 228 | 0.0 | 0.0 | 0.00 | 0.00 | 0.00 | 93 | 1016.8 |
| 20260505170530 | 21 | 228 | 0.0 | 0.0 | 0.00 | 0.00 | 0.00 | 93 | 1016.7 |
| 20260505170019 | 21 | 0.0 | 0.0 | 0.00 | 0.00 | 0.00 | 93 | ||
| 20260505153140 | 21 | 139 | 0.0 | 0.0 | 0.00 | 0.00 | 0.00 | 93 | 1015.7 |
| 20260505140227 | 21 | 349 | 0.0 | 8.0 | 0.00 | 0.00 | 0.00 | 90 | 1015.9 |
| 20260505130140 | 22 | 182 | 12.9 | 22.5 | 0.00 | 0.00 | 0.00 | 86 | 1016.3 |
| 20260505124506 | 23 | 127 | 14.5 | 17.7 | 0.00 | 0.00 | 0.00 | 83 | 1016.2 |
| 20260505124006 | 23 | 96 | 0.0 | 14.5 | 0.00 | 0.00 | 0.00 | 83 | 1016.3 |
| 20260505123453 | 23 | 162 | 6.4 | 17.7 | 0.00 | 0.00 | 0.00 | 83 | 1016.1 |
| 20260505122953 | 23 | 152 | 12.9 | 17.7 | 0.00 | 0.00 | 0.00 | 83 | 1016.3 |
| 20260505122442 | 23 | 122 | 6.4 | 20.9 | 0.00 | 0.00 | 0.00 | 83 | 1016.3 |
| 20260505122213 | 23 | 100 | 3.2 | 20.9 | 0.00 | 0.00 | 0.00 | 82 | 1016.5 |
| 20260505121431 | 23 | 110 | 4.8 | 16.1 | 0.00 | 0.00 | 0.00 | 82 | 1016.5 |
| 20260505120917 | 23 | 110 | 6.4 | 16.1 | 0.00 | 0.00 | 0.00 | 82 | 1016.5 |
| 20260505120648 | 23 | 150 | 12.9 | 17.7 | 0.00 | 0.00 | 0.00 | 82 | 1016.4 |
| 20260505120149 | 23 | 139 | 6.4 | 17.7 | 0.00 | 0.00 | 0.00 | 81 | 1016.6 |
| 20260505115420 | 23 | 100 | 9.7 | 17.7 | 0.00 | 0.00 | 0.00 | 81 | 1016.6 |
| 20260505114918 | 23 | 119 | 3.2 | 17.7 | 0.00 | 0.00 | 0.00 | 82 | 1016.6 |
| 20260505114417 | 23 | 127 | 8.0 | 20.9 | 0.00 | 0.00 | 0.00 | 81 | 1016.6 |
| 20260505113919 | 23 | 138 | 9.7 | 20.9 | 0.00 | 0.00 | 0.00 | 81 | 1016.7 |
| 20260505113418 | 23 | 102 | 11.3 | 20.9 | 0.00 | 0.00 | 0.00 | 81 | 1016.7 |
| 20260505112918 | 23 | 108 | 4.8 | 17.7 | 0.00 | 0.00 | 0.00 | 81 | 1016.9 |
| 20260505112649 | 23 | 87 | 8.0 | 17.7 | 0.00 | 0.00 | 0.00 | 81 | 1016.8 |
| 20260505111918 | 23 | 127 | 11.3 | 20.9 | 0.00 | 0.00 | 0.00 | 81 | 1016.9 |
| 20260505111417 | 23 | 98 | 3.2 | 20.9 | 0.00 | 0.00 | 0.00 | 82 | 1017.2 |
| 20260505110917 | 23 | 88 | 8.0 | 17.7 | 0.00 | 0.00 | 0.00 | 82 | 1017.0 |
| 20260505110418 | 23 | 137 | 11.3 | 17.7 | 0.00 | 0.00 | 0.00 | 82 | 1017.3 |
| 20260505101918 | 23 | 136 | 1.6 | 12.9 | 0.00 | 0.00 | 0.00 | 83 | 1018.0 |
| 20260505101419 | 23 | 166 | 0.0 | 14.5 | 0.00 | 0.00 | 0.00 | 83 | 1018.1 |
| 20260505101148 | 23 | 192 | 3.2 | 14.5 | 0.00 | 0.00 | 0.00 | 84 | 1018.0 |
| 20260505100417 | 23 | 157 | 6.4 | 12.9 | 0.00 | 0.00 | 0.00 | 83 | 1018.2 |
| 20260505095917 | 23 | 161 | 6.4 | 14.5 | 0.00 | 0.00 | 0.00 | 82 | 1018.0 |
| 20260505095418 | 23 | 168 | 6.4 | 17.7 | 0.00 | 0.00 | 0.00 | 81 | 1018.2 |
| 20260505094917 | 23 | 139 | 6.4 | 20.9 | 0.00 | 0.00 | 0.00 | 82 | 1018.1 |
| 20260505094417 | 23 | 156 | 11.3 | 22.5 | 0.00 | 0.00 | 0.00 | 82 | 1018.2 |
| 20260505093919 | 23 | 122 | 11.3 | 22.5 | 0.00 | 0.00 | 0.00 | 81 | 1018.2 |
| 20260505093417 | 23 | 101 | 8.0 | 17.7 | 0.00 | 0.00 | 0.00 | 82 | 1018.2 |
| 20260505092917 | 23 | 87 | 3.2 | 17.7 | 0.00 | 0.00 | 0.00 | 81 | 1017.9 |
| 20260505092417 | 23 | 133 | 4.8 | 12.9 | 0.00 | 0.00 | 0.00 | 81 | 1018.1 |
| 20260505091917 | 23 | 115 | 4.8 | 17.7 | 0.00 | 0.00 | 0.00 | 82 | 1018.2 |
| 20260505091417 | 23 | 140 | 3.2 | 17.7 | 0.00 | 0.00 | 0.00 | 82 | 1018.4 |
| 20260505090917 | 23 | 103 | 9.7 | 17.7 | 0.00 | 0.00 | 0.00 | 83 | 1018.4 |
| 20260505090419 | 23 | 145 | 4.8 | 17.7 | 0.00 | 0.00 | 0.00 | 83 | 1018.3 |
| 20260505085917 | 23 | 138 | 8.0 | 17.7 | 0.00 | 0.00 | 0.00 | 83 | 1018.3 |
| 20260505085419 | 23 | 151 | 8.0 | 20.9 | 0.00 | 0.00 | 0.00 | 83 | 1018.5 |
| 20260505084918 | 23 | 137 | 11.3 | 20.9 | 0.00 | 0.00 | 0.00 | 83 | 1018.7 |
| 20260505084417 | 23 | 142 | 4.8 | 16.1 | 0.00 | 0.00 | 0.00 | 83 | 1018.6 |
| 20260505083918 | 23 | 115 | 8.0 | 16.1 | 0.00 | 0.00 | 0.00 | 83 | 1018.6 |
| 20260505083649 | 23 | 127 | 12.9 | 17.7 | 0.00 | 0.00 | 0.00 | 83 | 1018.7 |
| 20260505082918 | 23 | 103 | 6.4 | 17.7 | 0.00 | 0.00 | 0.00 | 83 | 1018.7 |
| 20260505082417 | 23 | 99 | 0.0 | 14.5 | 0.00 | 0.00 | 0.00 | 83 | 1018.6 |
| 20260505081919 | 23 | 125 | 0.0 | 16.1 | 0.00 | 0.00 | 0.00 | 82 | 1018.7 |
| 20260505081418 | 23 | 136 | 3.2 | 16.1 | 0.00 | 0.00 | 0.00 | 82 | 1018.8 |
| 20260505080923 | 23 | 73 | 3.2 | 22.5 | 0.00 | 0.00 | 0.00 | 82 | 1018.7 |
| 20260505080918 | 23 | 124 | 4.8 | 16.1 | 0.00 | 0.00 | 0.00 | 82 | 1018.7 |
| 20260505075918 | 23 | 108 | 11.3 | 22.5 | 0.00 | 0.00 | 0.00 | 82 | 1018.4 |
| 20260505075418 | 23 | 96 | 12.9 | 17.7 | 0.00 | 0.00 | 0.00 | 82 | 1018.5 |
| 20260505074918 | 23 | 141 | 14.5 | 17.7 | 0.00 | 0.00 | 0.00 | 82 | 1018.5 |
| 20260505074648 | 23 | 103 | 6.4 | 20.9 | 0.00 | 0.00 | 0.00 | 82 | 1018.6 |
| 20260505073918 | 23 | 122 | 6.4 | 20.9 | 0.00 | 0.00 | 0.00 | 83 | 1018.6 |
| 20260505073418 | 23 | 98 | 4.8 | 20.9 | 0.00 | 0.00 | 0.00 | 82 | 1018.6 |
| 20260505072917 | 23 | 111 | 9.7 | 16.1 | 0.00 | 0.00 | 0.00 | 83 | 1018.8 |
| 20260505072406 | 23 | 95 | 9.7 | 20.9 | 0.00 | 0.00 | 0.00 | 83 | 1018.8 |
| 20260505071906 | 23 | 104 | 9.7 | 20.9 | 0.00 | 0.00 | 0.00 | 82 | 1019.1 |
| 20260505071406 | 23 | 101 | 9.7 | 17.7 | 0.00 | 0.00 | 0.00 | 82 | 1018.5 |
| 20260505071137 | 23 | 116 | 11.3 | 20.9 | 0.00 | 0.00 | 0.00 | 82 | 1018.6 |
| 20260505070406 | 23 | 117 | 4.8 | 20.9 | 0.00 | 0.00 | 0.00 | 83 | 1018.9 |
| 20260505065906 | 23 | 95 | 6.4 | 17.7 | 0.00 | 0.00 | 0.00 | 83 | 1018.9 |
| 20260505065406 | 23 | 119 | 12.9 | 16.1 | 0.00 | 0.00 | 0.00 | 81 | 1018.7 |
| 20260505064906 | 23 | 104 | 4.8 | 25.7 | 0.00 | 0.00 | 0.00 | 80 | 1018.6 |
| 20260505064406 | 23 | 100 | 8.0 | 25.7 | 0.00 | 0.00 | 0.00 | 81 | 1018.5 |
| 20260505064139 | 23 | 97 | 0.0 | 22.5 | 0.00 | 0.00 | 0.00 | 81 | 1018.9 |
| 20260505063406 | 23 | 103 | 4.8 | 22.5 | 0.00 | 0.00 | 0.00 | 82 | 1018.5 |
| 20260505062906 | 23 | 96 | 9.7 | 17.7 | 0.00 | 0.00 | 0.00 | 82 | 1018.4 |
| 20260505062406 | 24 | 108 | 9.7 | 20.9 | 0.00 | 0.00 | 0.00 | 81 | 1018.6 |
| 20260505061856 | 24 | 133 | 14.5 | 20.9 | 0.00 | 0.00 | 0.00 | 80 | 1018.5 |
| 20260505061344 | 23 | 119 | 12.9 | 16.1 | 0.00 | 0.00 | 0.00 | 78 | 1018.4 |
| 20260505060844 | 23 | 173 | 6.4 | 16.1 | 0.00 | 0.00 | 0.00 | 78 | 1017.9 |
| 20260505060614 | 23 | 111 | 8.0 | 16.1 | 0.00 | 0.00 | 0.00 | 78 | 1018.3 |
| 20260505055843 | 23 | 131 | 6.4 | 16.1 | 0.00 | 0.00 | 0.00 | 78 | 1018.1 |
| 20260505055343 | 23 | 84 | 8.0 | 14.5 | 0.00 | 0.00 | 0.00 | 77 | 1017.9 |
| 20260505054844 | 23 | 145 | 9.7 | 16.1 | 0.00 | 0.00 | 0.00 | 77 | 1017.9 |
| 20260505054344 | 23 | 98 | 6.4 | 20.9 | 0.00 | 0.00 | 0.00 | 77 | 1017.7 |
| 20260505053844 | 23 | 106 | 9.7 | 20.9 | 0.00 | 0.00 | 0.00 | 77 | 1017.9 |
| 20260505053343 | 23 | 130 | 6.4 | 16.1 | 0.00 | 0.00 | 0.00 | 76 | 1017.6 |
| 20260505052843 | 23 | 126 | 11.3 | 17.7 | 0.00 | 0.00 | 0.00 | 77 | 1017.7 |
| 20260505052344 | 23 | 110 | 9.7 | 17.7 | 0.00 | 0.00 | 0.00 | 76 | 1017.7 |
| 20260505051838 | 23 | 118 | 9.7 | 14.5 | 0.00 | 0.00 | 0.00 | 76 | 1017.9 |
| 20260505051332 | 23 | 129 | 4.8 | 14.5 | 0.00 | 0.00 | 0.00 | 77 | 1017.8 |
| 20260505050832 | 23 | 135 | 6.4 | 14.5 | 0.00 | 0.00 | 0.00 | 77 | 1017.9 |
| 20260505050333 | 23 | 125 | 6.4 | 14.5 | 0.00 | 0.00 | 0.00 | 77 | 1017.8 |
| 20260505041338 | 24 | 132 | 4.8 | 17.7 | 0.00 | 0.00 | 0.00 | 78 | 1017.8 |
| 20260505041332 | 24 | 59 | 0.0 | 17.7 | 0.00 | 0.00 | 0.00 | 78 | 1017.6 |
| 20260505040333 | 24 | 53 | 11.3 | 17.7 | 0.00 | 0.00 | 0.00 | 77 | 1017.5 |
| 20260505035332 | 25 | 111 | 8.0 | 22.5 | 0.00 | 0.00 | 0.00 | 78 | 1017.5 |
| 20260505034831 | 25 | 79 | 12.9 | 20.9 | 0.00 | 0.00 | 0.00 | 78 | 1017.5 |
| 20260505034332 | 25 | 124 | 6.4 | 20.9 | 0.00 | 0.03 | 0.00 | 77 | 1017.2 |
| 20260505034102 | 25 | 111 | 9.7 | 20.9 | 0.00 | 0.03 | 0.00 | 76 | 1017.2 |
| 20260505033331 | 25 | 96 | 9.7 | 22.5 | 0.00 | 0.03 | 0.00 | 74 | 1017.3 |
| 20260505032833 | 25 | 113 | 8.0 | 22.5 | 0.00 | 0.03 | 0.00 | 73 | 1017.2 |
| 20260505032332 | 26 | 57 | 0.0 | 16.1 | 0.00 | 0.03 | 0.00 | 74 | 1017.4 |
| 20260505031832 | 25 | 86 | 4.8 | 17.7 | 0.00 | 0.03 | 0.00 | 75 | 1017.4 |
| 20260505031332 | 25 | 123 | 1.6 | 17.7 | 0.00 | 0.03 | 0.00 | 74 | 1017.5 |
| 20260505030831 | 25 | 103 | 12.9 | 22.5 | 0.00 | 0.03 | 0.00 | 74 | 1017.5 |
| 20260505030332 | 25 | 94 | 3.2 | 22.5 | 0.00 | 0.03 | 0.00 | 76 | 1017.5 |
| 20260505025833 | 25 | 145 | 9.7 | 17.7 | 0.00 | 0.03 | 0.00 | 78 | 1017.3 |
| 20260505025604 | 25 | 119 | 8.0 | 17.7 | 0.00 | 0.03 | 0.00 | 78 | 1017.5 |
| 20260505025102 | 25 | 85 | 11.3 | 17.7 | 0.00 | 0.03 | 0.00 | 78 | 1017.6 |
| 20260505024331 | 25 | 83 | 1.6 | 16.1 | 0.00 | 0.03 | 0.00 | 78 | 1017.5 |
| 20260505023831 | 25 | 104 | 6.4 | 16.1 | 0.00 | 0.03 | 0.00 | 78 | 1017.5 |
| 20260505023332 | 25 | 105 | 4.8 | 20.9 | 0.00 | 0.03 | 0.00 | 78 | 1017.5 |
| 20260505022833 | 26 | 141 | 12.9 | 20.9 | 0.00 | 0.03 | 0.00 | 75 | 1017.7 |
| 20260505022332 | 26 | 94 | 3.2 | 24.1 | 0.00 | 0.03 | 0.00 | 74 | 1017.9 |
| 20260505021833 | 26 | 90 | 0.0 | 24.1 | 0.00 | 0.03 | 0.00 | 76 | 1017.7 |
| 20260505021332 | 26 | 78 | 8.0 | 24.1 | 0.00 | 0.03 | 0.00 | 76 | 1017.6 |
| 20260505020832 | 25 | 106 | 6.4 | 24.1 | 0.00 | 0.03 | 0.00 | 75 | 1018.0 |
| 20260505020332 | 25 | 121 | 8.0 | 22.5 | 0.00 | 0.03 | 0.00 | 75 | 1017.6 |
| 20260505015603 | 25 | 90 | 14.5 | 24.1 | 0.00 | 0.03 | 0.00 | 75 | 1017.8 |
| 20260505015102 | 25 | 71 | 9.7 | 24.1 | 0.00 | 0.03 | 0.00 | 76 | 1017.9 |
| 20260505014332 | 25 | 103 | 6.4 | 24.1 | 0.00 | 0.03 | 0.00 | 73 | 1017.7 |
| 20260505013831 | 25 | 96 | 11.3 | 24.1 | 0.00 | 0.03 | 0.00 | 74 | 1017.8 |
| 20260505013331 | 25 | 119 | 16.1 | 22.5 | 0.00 | 0.03 | 0.00 | 74 | 1017.7 |
| 20260505012833 | 26 | 120 | 0.0 | 22.5 | 0.00 | 0.03 | 0.00 | 72 | 1017.5 |
| 20260505012334 | 26 | 128 | 9.7 | 22.5 | 0.00 | 0.03 | 0.00 | 72 | 1017.3 |
| 20260505011831 | 26 | 124 | 14.5 | 20.9 | 0.00 | 0.03 | 0.00 | 71 | 1017.8 |
| 20260505011332 | 26 | 139 | 8.0 | 17.7 | 0.00 | 0.03 | 0.00 | 72 | 1018.0 |
| 20260505010831 | 26 | 69 | 6.4 | 17.7 | 0.00 | 0.03 | 0.00 | 70 | 1018.0 |
| 20260505010326 | 26 | 159 | 6.4 | 20.9 | 0.00 | 0.03 | 0.00 | 71 | 1018.2 |
| 20260505005820 | 26 | 131 | 8.0 | 20.9 | 0.00 | 0.03 | 0.00 | 72 | 1018.4 |
| 20260505005319 | 26 | 86 | 4.8 | 22.5 | 0.00 | 0.03 | 0.00 | 70 | 1018.4 |
| 20260505004820 | 27 | 110 | 14.5 | 25.7 | 0.00 | 0.03 | 0.00 | 69 | 1018.5 |
| 20260505004320 | 26 | 76 | 6.4 | 25.7 | 0.00 | 0.03 | 0.00 | 70 | 1018.2 |
| 20260505003820 | 26 | 160 | 8.0 | 24.1 | 0.00 | 0.03 | 0.00 | 73 | 1018.2 |
| 20260505003550 | 26 | 108 | 12.9 | 32.2 | 0.00 | 0.03 | 0.00 | 72 | 1018.5 |
| 20260505002820 | 26 | 104 | 17.7 | 32.2 | 0.00 | 0.03 | 0.00 | 73 | 1018.4 |
| 20260505002550 | 26 | 124 | 11.3 | 25.7 | 0.00 | 0.03 | 0.00 | 73 | 1018.4 |
| 20260505001819 | 26 | 107 | 12.9 | 25.7 | 0.00 | 0.03 | 0.00 | 75 | 1018.3 |
| 20260505001550 | 26 | 93 | 9.7 | 24.1 | 0.00 | 0.03 | 0.00 | 75 | 1018.5 |
| 20260505000820 | 26 | 116 | 9.7 | 24.1 | 0.00 | 0.05 | 0.00 | 72 | 1018.4 |
| 20260505000319 | 26 | 96 | 3.2 | 20.9 | 0.00 | 0.05 | 0.00 | 74 | 1018.5 |
| 20260504235819 | 27 | 97 | 8.0 | 17.7 | 0.00 | 0.05 | 0.00 | 71 | 1018.8 |
| 20260504235320 | 26 | 84 | 11.3 | 20.9 | 0.00 | 0.05 | 0.00 | 74 | 1018.6 |
| 20260504234820 | 26 | 118 | 1.6 | 20.9 | 0.00 | 0.05 | 0.00 | 71 | 1018.7 |
| 20260504234320 | 26 | 111 | 4.8 | 22.5 | 0.00 | 0.05 | 0.00 | 71 | 1019.0 |
| 20260504234051 | 26 | 124 | 14.5 | 24.1 | 0.00 | 0.05 | 0.00 | 71 | 1018.9 |
| 20260504233552 | 26 | 98 | 14.5 | 24.1 | 0.00 | 0.05 | 0.00 | 73 | 1018.9 |
| 20260504232820 | 26 | 101 | 6.4 | 25.7 | 0.00 | 0.05 | 0.00 | 74 | 1018.7 |
| 20260504232551 | 26 | 119 | 9.7 | 25.7 | 0.00 | 0.05 | 0.00 | 73 | 1018.7 |
| 20260504231819 | 26 | 132 | 4.8 | 25.7 | 0.00 | 0.05 | 0.00 | 75 | 1018.8 |
| 20260504231319 | 26 | 128 | 16.1 | 27.4 | 0.00 | 0.05 | 0.00 | 76 | 1018.7 |
| 20260504230820 | 26 | 119 | 11.3 | 27.4 | 0.00 | 0.05 | 0.00 | 74 | 1018.6 |
| 20260504230320 | 26 | 117 | 12.9 | 25.7 | 0.00 | 0.05 | 0.00 | 76 | 1018.9 |
| 20260504225820 | 25 | 142 | 8.0 | 25.7 | 0.00 | 0.05 | 0.00 | 76 | 1018.9 |
| 20260504225320 | 26 | 159 | 11.3 | 27.4 | 0.00 | 0.05 | 0.00 | 74 | 1019.0 |
| 20260504225051 | 26 | 71 | 0.0 | 27.4 | 0.00 | 0.05 | 0.00 | 74 | 1018.8 |
| 20260504224321 | 26 | 77 | 4.8 | 27.4 | 0.00 | 0.05 | 0.00 | 72 | 1018.9 |
| 20260504223820 | 27 | 83 | 8.0 | 27.4 | 0.00 | 0.05 | 0.00 | 72 | 1018.9 |
| 20260504223320 | 26 | 78 | 4.8 | 25.7 | 0.00 | 0.05 | 0.00 | 74 | 1018.9 |
| 20260504222821 | 26 | 138 | 9.7 | 25.7 | 0.00 | 0.05 | 0.00 | 73 | 1019.2 |
| 20260504222320 | 26 | 35 | 9.7 | 25.7 | 0.00 | 0.05 | 0.00 | 73 | 1019.0 |
| 20260504221821 | 26 | 103 | 12.9 | 25.7 | 0.00 | 0.05 | 0.00 | 71 | 1019.1 |
| 20260504221323 | 26 | 112 | 6.4 | 25.7 | 0.00 | 0.05 | 0.00 | 71 | 1019.2 |
| 20260504220820 | 26 | 75 | 9.7 | 24.1 | 0.00 | 0.05 | 0.00 | 72 | 1019.2 |
| 20260504220320 | 26 | 85 | 8.0 | 25.7 | 0.00 | 0.05 | 0.00 | 71 | 1019.2 |
| 20260504215820 | 26 | 98 | 9.7 | 25.7 | 0.00 | 0.05 | 0.00 | 72 | 1019.2 |
| 20260504215320 | 26 | 124 | 8.0 | 24.1 | 0.00 | 0.05 | 0.00 | 73 | 1019.1 |
| 20260504214820 | 26 | 82 | 8.0 | 27.4 | 0.00 | 0.05 | 0.00 | 72 | 1019.2 |
| 20260504214320 | 26 | 75 | 8.0 | 27.4 | 0.00 | 0.05 | 0.00 | 75 | 1019.6 |
| 20260504213820 | 26 | 105 | 12.9 | 30.6 | 0.00 | 0.05 | 0.00 | 73 | 1019.1 |
| 20260504213539 | 26 | 66 | 17.7 | 30.6 | 0.00 | 0.05 | 0.00 | 72 | 1019.3 |
| 20260504212807 | 26 | 114 | 4.8 | 24.1 | 0.00 | 0.05 | 0.00 | 73 | 1019.3 |
| 20260504212257 | 26 | 77 | 8.0 | 22.5 | 0.00 | 0.05 | 0.00 | 73 | 1019.5 |
| 20260504211758 | 26 | 78 | 12.9 | 25.7 | 0.00 | 0.05 | 0.00 | 73 | 1019.6 |
| 20260504211115 | 26 | 46 | 9.7 | 27.4 | 0.00 | 0.05 | 0.00 | 72 | 1019.4 |
| 20260504210615 | 26 | 92 | 3.2 | 25.7 | 0.00 | 0.05 | 0.00 | 71 | 1020.0 |
| 20260504210115 | 26 | 117 | 12.9 | 25.7 | 0.00 | 0.05 | 0.00 | 71 | 1019.7 |
| 20260504205615 | 26 | 94 | 11.3 | 25.7 | 0.00 | 0.05 | 0.00 | 71 | 1019.7 |
| 20260504205346 | 26 | 59 | 14.5 | 30.6 | 0.00 | 0.05 | 0.00 | 71 | 1019.7 |
| 20260504204614 | 26 | 80 | 9.7 | 30.6 | 0.00 | 0.05 | 0.00 | 71 | 1019.5 |
| 20260504204114 | 26 | 80 | 3.2 | 22.5 | 0.00 | 0.05 | 0.00 | 71 | 1019.6 |
| 20260504203614 | 26 | 100 | 9.7 | 20.9 | 0.00 | 0.05 | 0.00 | 70 | 1019.8 |
| 20260504203114 | 26 | 141 | 6.4 | 22.5 | 0.00 | 0.05 | 0.00 | 70 | 1019.7 |
| 20260504202614 | 26 | 79 | 12.9 | 22.5 | 0.00 | 0.05 | 0.00 | 71 | 1019.8 |
| 20260504202347 | 26 | 83 | 14.5 | 22.5 | 0.00 | 0.05 | 0.00 | 70 | 1019.7 |
| 20260504201614 | 26 | 126 | 14.5 | 27.4 | 0.00 | 0.05 | 0.00 | 71 | 1019.9 |
| 20260504201114 | 25 | 108 | 9.7 | 27.4 | 0.00 | 0.23 | 0.00 | 74 | 1019.7 |
| 20260504200614 | 25 | 59 | 12.9 | 25.7 | 0.00 | 0.38 | 0.00 | 72 | 1019.8 |
| 20260504200116 | 25 | 67 | 0.0 | 25.7 | 0.00 | 0.38 | 0.00 | 73 | 1019.8 |
| 20260504195847 | 26 | 91 | 8.0 | 25.7 | 0.00 | 0.38 | 0.00 | 71 | 1020.0 |
| 20260504195115 | 26 | 98 | 16.1 | 20.9 | 0.00 | 0.38 | 0.00 | 72 | 1020.1 |
| 20260504194846 | 26 | 81 | 12.9 | 22.5 | 0.00 | 0.38 | 0.00 | 72 | 1020.0 |
| 20260504194346 | 25 | 83 | 8.0 | 22.5 | 0.00 | 0.38 | 0.00 | 72 | 1020.1 |
| 20260504193614 | 25 | 89 | 12.9 | 22.5 | 0.00 | 0.38 | 0.00 | 72 | 1020.1 |